TimeCDT,TemperatureF,Dew PointF,Humidity,Sea Level PressureIn,VisibilityMPH,Wind Direction,Wind SpeedMPH,Gust SpeedMPH,PrecipitationIn,Events,Conditions,WindDirDegrees,DateUTC
12:15 AM,24.8,19.4,80,30.16,10.0,NW,13.8,-,N/A,,Overcast,320,2013-03-24 05:15:00
12:35 AM,24.8,17.6,74,30.16,10.0,NW,13.8,-,N/A,,Overcast,320,2013-03-24 05:35:00
12:55 AM,24.8,19.4,80,30.16,10.0,NW,12.7,-,N/A,,Overcast,320,2013-03-24 05:55:00
1:15 AM,24.8,17.6,74,30.16,10.0,NW,15.0,-,N/A,,Overcast,320,2013-03-24 06:15:00
1:35 AM,24.8,17.6,74,30.16,10.0,NW,17.3,-,N/A,,Overcast,310,2013-03-24 06:35:00
1:55 AM,24.8,19.4,80,30.16,10.0,NW,13.8,-,N/A,,Overcast,310,2013-03-24 06:55:00
2:35 AM,24.8,17.6,74,30.16,10.0,NW,15.0,20.7,N/A,,Overcast,310,2013-03-24 07:35:00
2:55 AM,23.0,17.6,80,30.15,10.0,NW,18.4,-,N/A,,Overcast,310,2013-03-24 07:55:00
3:15 AM,23.0,17.6,80,30.15,10.0,NW,17.3,21.9,N/A,,Overcast,310,2013-03-24 08:15:00
3:35 AM,23.0,17.6,80,30.15,10.0,NW,12.7,-,N/A,,Overcast,310,2013-03-24 08:35:00
3:55 AM,23.0,17.6,80,30.14,10.0,NW,16.1,-,N/A,,Overcast,310,2013-03-24 08:55:00
4:15 AM,23.0,17.6,80,30.14,10.0,NW,16.1,20.7,N/A,,Overcast,310,2013-03-24 09:15:00
4:35 AM,21.2,17.6,86,30.13,10.0,NW,17.3,21.9,N/A,,Overcast,310,2013-03-24 09:35:00
4:55 AM,21.2,17.6,86,30.13,10.0,NW,17.3,20.7,N/A,,Overcast,320,2013-03-24 09:55:00
5:15 AM,21.2,17.6,86,30.13,10.0,NW,18.4,21.9,N/A,,Overcast,310,2013-03-24 10:15:00
5:35 AM,21.2,17.6,86,30.12,10.0,NW,17.3,23.0,N/A,,Overcast,310,2013-03-24 10:35:00
5:55 AM,21.2,15.8,80,30.12,10.0,NW,17.3,23.0,N/A,,Overcast,310,2013-03-24 10:55:00
6:15 AM,21.2,15.8,80,30.12,10.0,NW,18.4,-,N/A,,Overcast,310,2013-03-24 11:15:00
6:35 AM,19.4,15.8,86,30.13,10.0,NW,16.1,-,N/A,,Overcast,310,2013-03-24 11:35:00
6:55 AM,19.4,14.0,80,30.13,10.0,NW,15.0,21.9,N/A,,Overcast,310,2013-03-24 11:55:00
7:15 AM,17.6,14.0,86,30.13,10.0,NW,15.0,19.6,N/A,,Mostly Cloudy,310,2013-03-24 12:15:00
7:35 AM,17.6,12.2,79,30.13,10.0,WNW,15.0,-,N/A,,Scattered Clouds,300,2013-03-24 12:35:00
7:55 AM,17.6,12.2,79,30.13,10.0,WNW,16.1,-,N/A,,Clear,300,2013-03-24 12:55:00
8:15 AM,17.6,12.2,79,30.13,10.0,NW,19.6,-,N/A,,Clear,310,2013-03-24 13:15:00
8:35 AM,17.6,14.0,86,30.13,10.0,NW,16.1,21.9,N/A,,Clear,310,2013-03-24 13:35:00
8:55 AM,19.4,14.0,80,30.12,10.0,NW,16.1,-,N/A,,Mostly Cloudy,310,2013-03-24 13:55:00
9:15 AM,19.4,15.8,86,30.12,10.0,NW,16.1,-,N/A,,Partly Cloudy,310,2013-03-24 14:15:00
9:35 AM,21.2,15.8,80,30.11,10.0,WNW,19.6,24.2,N/A,,Clear,300,2013-03-24 14:35:00
9:55 AM,21.2,15.8,80,30.11,10.0,NW,16.1,24.2,N/A,,Partly Cloudy,310,2013-03-24 14:55:00
10:15 AM,21.2,15.8,80,30.10,10.0,NW,19.6,24.2,N/A,,Mostly Cloudy,310,2013-03-24 15:15:00
10:35 AM,21.2,15.8,80,30.11,8.0,NW,19.6,-,N/A,,Overcast,310,2013-03-24 15:35:00
10:55 AM,21.2,15.8,80,30.11,9.0,NW,21.9,-,N/A,,Overcast,320,2013-03-24 15:55:00
11:15 AM,21.2,15.8,80,30.11,9.0,NW,20.7,24.2,N/A,,Mostly Cloudy,320,2013-03-24 16:15:00
11:35 AM,23.0,15.8,74,30.10,10.0,NW,20.7,25.3,N/A,,Mostly Cloudy,310,2013-03-24 16:35:00
11:55 AM,23.0,15.8,74,30.11,10.0,NW,19.6,-,N/A,,Overcast,320,2013-03-24 16:55:00
12:15 PM,24.8,15.8,69,30.11,9.0,NW,18.4,25.3,N/A,,Overcast,320,2013-03-24 17:15:00
12:35 PM,24.8,14.0,64,30.11,10.0,WNW,18.4,24.2,N/A,,Mostly Cloudy,300,2013-03-24 17:35:00
12:55 PM,24.8,15.8,69,30.10,9.0,NW,17.3,23.0,N/A,,Mostly Cloudy,310,2013-03-24 17:55:00
1:15 PM,24.8,15.8,69,30.10,7.0,NW,17.3,25.3,N/A,,Scattered Clouds,310,2013-03-24 18:15:00
1:35 PM,24.8,15.8,69,30.10,6.0,NW,16.1,26.5,N/A,,Scattered Clouds,310,2013-03-24 18:35:00
2:15 PM,26.6,15.8,64,30.09,9.0,NNW,19.6,26.5,N/A,,Scattered Clouds,330,2013-03-24 19:15:00
2:35 PM,26.6,15.8,64,30.08,9.0,NW,19.6,27.6,N/A,,Partly Cloudy,320,2013-03-24 19:35:00
2:55 PM,28.4,15.8,59,30.08,10.0,NW,17.3,-,N/A,,Scattered Clouds,310,2013-03-24 19:55:00
3:15 PM,26.6,17.6,69,30.07,9.0,NW,19.6,-,N/A,,Scattered Clouds,320,2013-03-24 20:15:00
3:35 PM,26.6,17.6,69,30.07,10.0,NW,20.7,26.5,N/A,,Scattered Clouds,310,2013-03-24 20:35:00
3:55 PM,26.6,17.6,69,30.06,10.0,NW,19.6,24.2,N/A,,Mostly Cloudy,310,2013-03-24 20:55:00
4:15 PM,26.6,17.6,69,30.07,10.0,NW,17.3,24.2,N/A,,Overcast,320,2013-03-24 21:15:00
4:35 PM,26.6,17.6,69,30.07,10.0,NW,19.6,23.0,N/A,,Overcast,320,2013-03-24 21:35:00
4:55 PM,26.6,17.6,69,30.07,10.0,NW,19.6,25.3,N/A,,Overcast,310,2013-03-24 21:55:00
5:15 PM,26.6,17.6,69,30.07,10.0,WNW,18.4,-,N/A,,Overcast,300,2013-03-24 22:15:00
5:35 PM,26.6,17.6,69,30.07,10.0,NW,18.4,25.3,N/A,,Overcast,310,2013-03-24 22:35:00
5:55 PM,26.6,19.4,74,30.08,10.0,NW,18.4,23.0,N/A,,Overcast,310,2013-03-24 22:55:00
6:15 PM,26.6,19.4,74,30.08,10.0,NW,16.1,24.2,N/A,,Overcast,320,2013-03-24 23:15:00
6:35 PM,26.6,21.2,80,30.09,5.0,NW,19.6,-,N/A,,Overcast,320,2013-03-24 23:35:00
6:55 PM,26.6,21.2,80,30.09,5.0,NW,18.4,24.2,N/A,,Overcast,320,2013-03-24 23:55:00
7:15 PM,26.6,21.2,80,30.09,3.0,NW,17.3,-,N/A,,Overcast,320,2013-03-25 00:15:00
7:35 PM,26.6,21.2,80,30.09,2.5,NW,19.6,24.2,N/A,,Overcast,320,2013-03-25 00:35:00
7:55 PM,24.8,23.0,93,30.10,1.8,NW,16.1,-,N/A,,Overcast,310,2013-03-25 00:55:00
8:15 PM,24.8,23.0,93,30.10,4.0,NW,17.3,21.9,N/A,,Mostly Cloudy,320,2013-03-25 01:15:00
8:35 PM,24.8,21.2,86,30.11,7.0,NW,16.1,23.0,N/A,,Partly Cloudy,310,2013-03-25 01:35:00
8:55 PM,24.8,23.0,93,30.11,5.0,NW,15.0,-,N/A,,Mostly Cloudy,310,2013-03-25 01:55:00
9:15 PM,26.6,23.0,86,30.11,4.0,NW,16.1,24.2,N/A,,Overcast,310,2013-03-25 02:15:00
9:35 PM,26.6,23.0,86,30.12,4.0,NW,17.3,23.0,N/A,,Overcast,320,2013-03-25 02:35:00
9:55 PM,26.6,21.2,80,30.12,5.0,NW,20.7,-,N/A,,Mostly Cloudy,320,2013-03-25 02:55:00
10:15 PM,26.6,23.0,86,30.13,5.0,NNW,18.4,-,N/A,,Overcast,330,2013-03-25 03:15:00
10:35 PM,26.6,23.0,86,30.14,7.0,North,18.4,-,N/A,,Mostly Cloudy,350,2013-03-25 03:35:00
10:55 PM,26.6,23.0,86,30.15,4.0,NNW,19.6,24.2,N/A,,Mostly Cloudy,340,2013-03-25 03:55:00
11:15 PM,24.8,23.0,93,30.15,3.0,NNW,15.0,21.9,N/A,,Mostly Cloudy,340,2013-03-25 04:15:00
11:35 PM,24.8,21.2,86,30.16,5.0,North,19.6,23.0,N/A,,Overcast,350,2013-03-25 04:35:00
11:55 PM,24.8,21.2,86,30.16,10.0,NNW,19.6,25.3,N/A,,Overcast,340,2013-03-25 04:55:00